ZTF彗星

C/2020 V2 ( ZTF )

English version
Home page
Updated on September 4, 2021

---------------------------------------------------------------------

・ プロフィール

発見日 2020年11月2日
発見光度 19.0等
発見者 Zwicky Transient Facility

・ 写真集

・ 軌道要素

Epoch 2023 May 16.0 TT = JDT 2460080.5
T 2023 May 8.57003 TT                                   Rudenko
q   2.2277656            (2000.0)            P               Q
z  -0.0005197      Peri.  162.43040     +0.69786595     +0.59391957
 +/-0.0000038      Node   212.37152     +0.53387384     -0.05877749
e   1.0011578      Incl.  131.61178     +0.47745349     -0.80237445
From 792 observations 2020 Apr. 18-2021 May 30, mean residual 0".4.

・ 星図

・ 光度変化

        m1 = -19.4 + 5 logΔ + 35   log r  [    ,-910]  (              〜2020年11月 9日)
        m1 =   4.0 + 5 logΔ + 10.0 log r  [-910,    ]  (2020年11月 9日〜              )

---------------------------------------------------------------------

軌道要素はM.P.E.C. 2021-L04に掲載されたものです。
星図はステラナビゲータ Ver.10 (アストロアーツ) で作成したものです。
光度グラフはComet for Windowsで作成したものです。

---------------------------------------------------------------------

Copyright(C) Seiichi Yoshida (comet@aerith.net). All rights reserved.